Вернуться в каталог

STARLINK-34531

АктивенСвязьVLEO
NORAD 64750·PAYLOAD·🇺🇸 United States

Запущен Jul 2, 2025 с Cape Canaveral Space Force Station

Loading…

Ближайшие Пролёты (ближайшие 24 часа)

TLE

СвежийSource: CelesTrak SupGP

Эпоха: Sep 15, 2026, 02:42 UTC

1 64750C 25144AC  26258.11298611  .00035442  00000+0  10472-2 0  2581
2 64750  53.1609  18.6090 0001153  90.1155 131.1481 15.34370380    17

Отслеживайте STARLINK-34531 в реальном времени с AllMySat

Download on the App Store